[[{"header":{"parameterUnit":"m.s-1","parameterCategory":1,"la1":30.2991,"la2":30.254,"lo1":-89.0895,"lo2":-89.0444,"dy":0.0017,"dx":0.0017,"nx":28,"ny":28,"refTime":"2025-09-07T21:00:00:Z","depth":0,"parameterNumber":2,"parameterNumberName":"U-component_of_WINDS"},"data":[0,0,0,0,0,0,0,0,0,0,0,0,0,0,0,0,0,0,0,0,0,0,0,0,0,0,0,0,0,0,0,0,0,0,0,0,0,0,0,0,0,0,0,0,0,0,0,0,0,0,0,0,0,0,0,0,0,0,-4.0592,-4.0595,0,-4.0806,-4.0808,-4.0811,-4.0762,-4.0758,-4.0754,-4.075,-4.0975,-4.0984,-4.0994,0,0,0,0,0,0,0,0,0,0,0,0,0,-4.0147,-4.0156,-4.0592,-4.0595,-4.0597,-4.0806,-4.0808,-4.0811,-4.0763,-4.0758,-4.0753,-4.0748,-4.0972,-4.0983,-4.0995,0,0,0,0,0,0,0,0,0,0,0,0,0,-4.0349,-4.0158,-4.0592,-4.0598,-4.0601,-4.0805,-4.0809,-4.0812,-4.0764,-4.0758,-4.0751,-4.0746,-4.0968,-4.0982,-4.0996,-4.1209,0,0,-4.1041,-4.1048,0,0,0,0,0,0,0,0,-4.0337,-4.0365,-4.0594,-4.0598,-4.0601,-4.0751,-4.0734,-4.0946,-4.0765,-4.0702,-4.075,-4.0743,-4.0906,-4.0925,-4.0979,-4.122,-4.123,-4.1043,-4.1051,-4.1058,-4.1062,0,0,0,0,0,0,0,-4.0324,-4.0356,-4.0677,-4.0598,-4.0602,-4.0592,-4.0614,-4.0774,-4.0836,-4.0707,-4.0704,-4.073,-4.0906,-4.0965,-4.0984,-4.1233,-4.1042,-4.1055,-4.1064,-4.107,-4.1661,-4.1668,0,0,0,0,0,0,-4.0306,-4.0344,-4.067,-4.0683,-4.0451,-4.0605,-4.0629,-4.0709,-4.0834,-4.0847,-4.0735,-4.0727,-4.0943,-4.0967,-4.0991,-4.125,-4.1058,-4.1071,-4.108,-4.1654,-4.1663,-4.167,0,0,0,0,0,0,-4.0296,-4.0335,-4.0661,-4.0513,-4.0554,-4.0619,-4.0709,-4.0717,-4.0775,-4.0855,-4.0866,-4.0783,-4.0939,-4.0971,-4.1155,-4.1257,-4.1078,-4.1091,-4.1646,-4.1657,-4.1666,-4.1768,0,0,0,0,0,0,-4.0284,-4.0332,-4.0412,-4.0515,-4.0562,-4.0821,-4.0715,-4.0725,-4.08,-4.0791,-4.0902,-4.0915,-4.0936,-4.1134,-4.117,-4.1274,-4.1103,-4.1637,-4.1651,-4.1663,-4.1756,-4.1781,-4.1802,0,0,0,0,0,-4.0268,-4.0434,-4.0417,-4.0456,-4.0663,-4.0826,-4.0853,-4.0873,-4.0808,-4.089,-4.0941,-4.0912,-4.124,-4.1153,-4.1194,-4.1304,-4.1631,-4.1647,-4.1662,-4.1746,-4.1776,-4.1801,0,0,0,0,0,0,-4.0343,-4.0447,-4.043,-4.0633,-4.0721,-4.0818,-4.0922,-4.0904,-4.1014,-4.1001,-4.1022,-4.1048,-4.1237,-4.1288,-4.119,-4.1517,-4.1426,-4.1451,-4.1476,-4.1506,-4.1528,-4.1512,-4.1115,0,0,0,0,0,-4.0383,-4.0505,-4.059,-4.0761,-4.0806,-4.0857,-4.0928,-4.0935,-4.1028,-4.1066,-4.1131,-4.1224,-4.1348,-4.1429,-4.1548,-4.1763,-4.1788,-4.1859,-4.1881,-4.19,-4.1921,-4.2041,-4.2074,-4.1721,-4.1721,-4.1721,0,0,-4.0467,-4.0539,-4.0615,-4.0778,-4.0847,-4.0975,-4.0888,-4.1027,-4.1123,-4.1088,-4.1266,-4.1317,-4.1422,-4.1623,-4.1715,-4.1672,-4.2024,-4.192,-4.1934,-4.1945,-4.206,-4.2093,-4.2123,-4.1732,-4.173,-4.1728,0,0,-4.0686,-4.0752,-4.0902,-4.0973,-4.1078,-4.111,-4.1147,-4.1247,-4.1279,-4.1457,-4.1434,-4.1549,-4.1762,-4.1838,-4.1905,-4.2153,-4.2131,-4.2191,-4.2311,-4.2427,-4.2455,-4.248,-4.257,-4.2602,-4.2212,-4.2212,-4.2212,0,-4.0778,-4.0968,-4.0982,-4.1123,-4.1197,-4.1169,-4.1322,-4.1391,-4.153,-4.1582,-4.1531,-4.1799,-4.1867,-4.2087,-4.2147,-4.2202,-4.2245,-4.2179,-4.2449,-4.2475,-4.2498,-4.2584,-4.2618,-4.2219,-4.2218,-4.2217,-4.2217,0,-4.1077,-4.1209,-4.1318,-4.1451,-4.1536,-4.1683,-4.1722,-4.1807,-4.1807,-4.1845,-4.2029,-4.211,-4.2245,-4.2297,-4.2299,-4.2518,-4.2488,-4.2444,-4.2353,-4.2538,-4.262,-4.2653,-4.2229,-4.2226,-4.2224,-4.2222,0,0,-4.135,-4.1488,-4.1529,-4.1589,-4.1703,-4.1806,-4.1953,-4.2083,-4.2156,-4.2253,-4.2378,-4.2558,-4.2518,-4.2594,-4.2604,-4.2706,-4.2899,-4.2649,-4.2652,-4.2694,-4.3147,-4.3181,-4.3219,-4.2884,-4.289,-4.2895,-4.3139,0,-4.158,-4.1835,-4.1853,-4.2085,-4.2208,-4.2183,-4.2311,-4.2396,-4.2436,-4.2548,-4.2592,-4.2721,-4.2657,-4.2702,-4.2802,-4.2854,-4.2991,-4.2837,-4.3003,-4.3008,-4.2978,-4.3261,-4.3298,-4.3523,-4.3171,-4.3176,-4.318,0,-4.1883,-4.1987,-4.2231,-4.2328,-4.238,-4.2494,-4.2615,-4.2722,-4.2818,-4.2841,-4.2925,-4.2921,-4.3074,-4.2977,-4.3189,-4.3084,-4.3153,-4.3189,-4.3198,-4.3216,-4.3106,-4.3288,-4.3596,-4.363,-4.323,-4.3226,-4.3222,0,-4.2059,-4.2261,-4.2433,-4.2485,-4.2602,-4.2683,-4.2737,-4.2826,-4.2904,-4.3011,-4.3062,-4.3185,-4.3254,-4.3351,-4.3381,-4.3308,-4.3593,-4.3498,-4.3618,-4.3617,-4.368,-4.3676,-4.4004,-4.3722,-4.3721,-4.3721,-4.372,0,-4.2315,-4.2466,-4.2514,-4.262,-4.2788,-4.2808,-4.2975,-4.3023,-4.3104,-4.322,-4.3207,-4.3317,-4.335,-4.3467,-4.3492,-4.3665,-4.3695,-4.3719,-4.3725,-4.3722,-4.3719,-4.3768,-4.3754,-4.373,-4.3728,-4.3726,-4.3724,0,-4.2541,-4.2579,-4.2765,-4.286,-4.2888,-4.3008,-4.3091,-4.3194,-4.3231,-4.3379,-4.3415,-4.3475,-4.3612,-4.3652,-4.3817,-4.3834,-4.4037,-4.4027,-4.4004,-4.4005,-4.4122,-4.4111,-4.4496,-4.4548,-4.4229,-4.4232,-4.4235,0,-4.2703,-4.2818,-4.2925,-4.3001,-4.3057,-4.318,-4.3258,-4.3283,-4.3365,-4.3484,-4.3574,-4.3708,-4.3817,-4.4037,-4.4097,-4.4224,-4.4218,-4.4344,-4.4237,-4.4231,-4.4222,-4.4216,-4.4228,-4.4365,-4.4368,-4.4371,-4.4373,0,-4.2986,-4.2999,-4.3112,-4.3232,-4.3325,-4.3422,-4.3514,-4.3578,-4.3615,-4.3709,-4.3848,-4.3932,-4.41,-4.4235,-4.4363,-4.442,-4.4405,-4.4406,-4.4441,-4.4439,-4.4422,-4.4435,-4.4061,-4.4397,-4.4395,-4.4393,-4.4392,-4.4391,-4.3186,-4.3287,-4.3379,-4.3505,-4.3577,-4.3663,-4.3765,-4.3815,-4.393,-4.4067,-4.4075,-4.4226,-4.4321,-4.4491,-4.4555,-4.4675,-4.4638,-4.4688,-4.4701,-4.4714,-4.4724,-4.4401,-4.4698,-4.4698,-4.4697,-4.4697,-4.4696,0,-4.347,-4.3527,-4.3643,-4.3772,-4.3872,-4.3845,-4.3946,-4.4033,-4.4165,-4.4254,-4.4361,-4.4521,-4.4652,-4.4722,-4.4852,-4.4935,-4.4932,-4.4969,-4.4964,-4.4978,-4.4748,-4.4706,-4.497,-4.497,-4.497,-4.497,-4.497,-4.497,-4.3629,-4.38,-4.3824,-4.403,-4.4087,-4.4233,-4.4293,-4.4374,-4.4445,-4.4624,-4.4732,-4.4775,-4.4858,-4.4994,-4.5114,-4.5131,-4.5181,-4.5223,-4.5237,-4.5022,-4.4994,-4.4967,-4.4927,-4.5233,-4.5234,-4.5456,-4.5458,-4.546]},{"header":{"parameterUnit":"m.s-1","parameterCategory":1,"la1":30.2991,"la2":30.254,"lo1":-89.0895,"lo2":-89.0444,"dy":0.0017,"dx":0.0017,"nx":28,"ny":28,"refTime":"2025-09-07T21:00:00:Z","depth":0,"parameterNumber":3,"parameterNumberName":"V-component_of_WINDS"},"data":[0,0,0,0,0,0,0,0,0,0,0,0,0,0,0,0,0,0,0,0,0,0,0,0,0,0,0,0,0,0,0,0,0,0,0,0,0,0,0,0,0,0,0,0,0,0,0,0,0,0,0,0,0,0,0,0,0,0,-3.8471,-3.8469,0,-3.8349,-3.8348,-3.8346,-3.8221,-3.8219,-3.8218,-3.8216,-3.8089,-3.8087,-3.8085,0,0,0,0,0,0,0,0,0,0,0,0,0,-3.859,-3.8588,-3.8471,-3.8469,-3.8468,-3.8349,-3.8348,-3.8346,-3.8222,-3.8219,-3.8217,-3.8215,-3.8089,-3.8087,-3.8085,0,0,0,0,0,0,0,0,0,0,0,0,0,-3.851,-3.8588,-3.8471,-3.8391,-3.8383,-3.835,-3.8348,-3.8346,-3.8222,-3.8219,-3.8217,-3.8214,-3.809,-3.8087,-3.8085,-3.8119,0,0,-3.8076,-3.8075,0,0,0,0,0,0,0,0,-3.8515,-3.8506,-3.8405,-3.8397,-3.8387,-3.8298,-3.8343,-3.827,-3.8223,-3.8283,-3.8216,-3.8213,-3.816,-3.8151,-3.8134,-3.8113,-3.8108,-3.8076,-3.8074,-3.8073,-3.8072,0,0,0,0,0,0,0,-3.852,-3.851,-3.8422,-3.8403,-3.8393,-3.836,-3.8346,-3.8328,-3.8237,-3.8278,-3.8268,-3.8256,-3.8155,-3.8137,-3.813,-3.8106,-3.8076,-3.8074,-3.8072,-3.8071,-3.8103,-3.8105,0,0,0,0,0,0,-3.8539,-3.8516,-3.8426,-3.8419,-3.8446,-3.836,-3.8344,-3.8329,-3.8237,-3.8221,-3.8258,-3.825,-3.8143,-3.8133,-3.8125,-3.8157,-3.8073,-3.8071,-3.8069,-3.81,-3.8103,-3.8106,0,0,0,0,0,0,-3.8542,-3.8532,-3.8431,-3.8465,-3.8449,-3.8361,-3.8345,-3.8328,-3.831,-3.8222,-3.8205,-3.8257,-3.8141,-3.8129,-3.8121,-3.8151,-3.8069,-3.8067,-3.8097,-3.8101,-3.8105,-3.8223,0,0,0,0,0,0,-3.8546,-3.8534,-3.8547,-3.8466,-3.8448,-3.8431,-3.8347,-3.8328,-3.8306,-3.8295,-3.8217,-3.8201,-3.8138,-3.8126,-3.8118,-3.8146,-3.8065,-3.8094,-3.8099,-3.8103,-3.8216,-3.823,-3.8243,0,0,0,0,0,-3.855,-3.8586,-3.8549,-3.8539,-3.8464,-3.8433,-3.8423,-3.835,-3.8309,-3.8321,-3.8264,-3.8204,-3.8149,-3.8126,-3.8116,-3.8144,-3.8092,-3.8098,-3.8103,-3.821,-3.8228,-3.8242,0,0,0,0,0,0,-3.8672,-3.8574,-3.8532,-3.8542,-3.8497,-3.8412,-3.8425,-3.8371,-3.8336,-3.8327,-3.8236,-3.8219,-3.8221,-3.8181,-3.8157,-3.817,-3.8112,-3.8116,-3.8196,-3.8212,-3.8225,-3.8234,-3.8063,0,0,0,0,0,-3.8701,-3.8686,-3.8599,-3.8617,-3.8596,-3.8515,-3.8499,-3.8446,-3.8396,-3.8376,-3.8318,-3.827,-3.8241,-3.8225,-3.8194,-3.821,-3.8189,-3.8223,-3.8237,-3.8248,-3.8252,-3.8254,-3.8268,-3.8124,-3.8124,-3.8124,0,0,-3.8759,-3.8703,-3.8699,-3.864,-3.8599,-3.8583,-3.85,-3.8488,-3.8474,-3.8373,-3.8362,-3.8318,-3.8258,-3.8261,-3.826,-3.8228,-3.8287,-3.8255,-3.8265,-3.8263,-3.8262,-3.8275,-3.8288,-3.8128,-3.8127,-3.8127,0,0,-3.8856,-3.8813,-3.8822,-3.8782,-3.8721,-3.8666,-3.8668,-3.8591,-3.8558,-3.8545,-3.8468,-3.845,-3.8404,-3.8364,-3.8337,-3.8417,-3.8359,-3.8409,-3.8478,-3.8482,-3.8493,-3.8502,-3.8529,-3.8539,-3.8414,-3.8414,-3.8414,0,-3.8935,-3.891,-3.8833,-3.8824,-3.88,-3.8708,-3.8714,-3.8679,-3.8611,-3.8595,-3.8561,-3.8499,-3.8452,-3.8443,-3.8463,-3.8445,-3.8442,-3.8418,-3.8498,-3.8507,-3.8514,-3.8538,-3.8548,-3.842,-3.842,-3.8419,-3.8418,0,-3.901,-3.8993,-3.9007,-3.8944,-3.8921,-3.892,-3.884,-3.8826,-3.8775,-3.8723,-3.8709,-3.865,-3.8604,-3.8598,-3.8548,-3.8581,-3.8563,-3.8515,-3.8454,-3.8536,-3.8556,-3.8565,-3.8429,-3.8427,-3.8425,-3.8424,0,0,-3.9181,-3.9074,-3.908,-3.9049,-3.8974,-3.8959,-3.8953,-3.8909,-3.8897,-3.8853,-3.8843,-3.8805,-3.8759,-3.8729,-3.8673,-3.8676,-3.874,-3.8626,-3.8624,-3.8648,-3.877,-3.8806,-3.8818,-3.8701,-3.8703,-3.8704,-3.8774,0,-3.9264,-3.925,-3.9178,-3.9184,-3.9166,-3.9077,-3.9072,-3.9024,-3.8975,-3.8951,-3.8895,-3.8869,-3.8812,-3.8792,-3.8792,-3.8733,-3.8763,-3.8727,-3.869,-3.8689,-3.8707,-3.8829,-3.8868,-3.8937,-3.8782,-3.8783,-3.8784,0,-3.936,-3.9322,-3.9326,-3.9248,-3.9238,-3.9235,-3.9187,-3.9166,-3.9109,-3.9072,-3.9038,-3.8976,-3.8961,-3.8905,-3.8883,-3.886,-3.884,-3.8808,-3.8809,-3.8802,-3.8741,-3.8824,-3.8958,-3.8968,-3.8796,-3.8795,-3.8795,0,-3.9482,-3.9432,-3.9427,-3.9403,-3.9314,-3.9313,-3.9275,-3.9215,-3.9193,-3.915,-3.9134,-3.9091,-3.9067,-3.9033,-3.8959,-3.8925,-3.8944,-3.8882,-3.8911,-3.8913,-3.8919,-3.8919,-3.905,-3.8909,-3.8909,-3.8909,-3.8908,0,-3.9582,-3.9588,-3.948,-3.9477,-3.948,-3.9396,-3.94,-3.9354,-3.9301,-3.9285,-3.9206,-3.9193,-3.9096,-3.9071,-3.9013,-3.9002,-3.8992,-3.896,-3.8945,-3.8967,-3.8971,-3.8952,-3.8945,-3.8911,-3.8911,-3.891,-3.891,0,-3.9719,-3.9648,-3.9637,-3.9553,-3.9531,-3.9537,-3.9463,-3.9456,-3.9401,-3.9382,-3.9373,-3.9287,-3.9253,-3.9176,-3.9121,-3.9082,-3.9084,-3.9057,-3.9104,-3.9094,-3.9127,-3.9125,-3.9249,-3.926,-3.9114,-3.9116,-3.9117,0,-3.9787,-3.9789,-3.9705,-3.969,-3.9656,-3.9632,-3.9608,-3.9525,-3.9503,-3.9437,-3.9436,-3.9396,-3.936,-3.9309,-3.924,-3.9197,-3.9167,-3.9213,-3.916,-3.9181,-3.9165,-3.9165,-3.9164,-3.9225,-3.9227,-3.9229,-3.923,0,-3.9915,-3.9879,-3.9849,-3.9805,-3.9779,-3.9741,-3.9698,-3.9689,-3.9595,-3.9574,-3.9539,-3.9511,-3.9455,-3.9415,-3.9361,-3.9319,-3.9258,-3.9248,-3.9251,-3.9274,-3.9301,-3.9285,-3.9135,-3.9245,-3.9243,-3.9242,-3.9242,-3.9241,-4.0018,-4.0015,-3.9955,-3.9923,-3.9882,-3.9843,-3.9831,-3.9775,-3.9744,-3.9693,-3.9645,-3.9614,-3.9553,-3.9474,-3.9437,-3.9409,-3.9379,-3.9385,-3.9387,-3.9389,-3.9398,-3.9306,-3.9399,-3.9398,-3.9398,-3.9397,-3.9397,0,-4.0139,-4.0096,-4.0068,-4.001,-3.9984,-3.9931,-3.988,-3.9861,-3.9835,-3.9784,-3.975,-3.9708,-3.9668,-3.9596,-3.9549,-3.9541,-3.9511,-3.9531,-3.953,-3.9521,-3.9429,-3.9429,-3.9555,-3.9555,-3.9555,-3.9555,-3.9555,-3.9555,-4.02,-4.0191,-4.0148,-4.0116,-4.0072,-4.0042,-4.0017,-3.998,-3.9939,-3.9896,-3.9863,-3.9816,-3.9755,-3.9703,-3.9663,-3.9643,-3.9628,-3.9657,-3.9627,-3.9543,-3.9528,-3.9513,-3.9513,-3.9655,-3.9655,-3.9721,-3.9722,-3.9722]}]]